Home > Weather > Malakal > Past weeks

Flag for South Sudan Past Weather in Malakal, South Sudan — Yesterday and Last 2 Weeks

Now
84 °F

Sunny.


Feels Like: 87 °F
Forecast: 72 / 85 °F
Wind: 3 mph from Southwest

Location: Khartoum Airport

Current Time: Aug 24, 2016 at 7:22:50 AM

Latest Report: Aug 24, 2016 at 7:00 AM


Visibility: 10 mi

Pressure: 29.83 "Hg

Humidity: 58%

Dew Point: 68 °F

Location of MalakalLocation

Past Weather in Malakal — Graph

°F

Malakal Temperature Yesterday

Maximum temperature yesterday: 97 °F (at 4:30 PM)
Minimum temperature yesterday: 81 °F (at 7:00 AM)
Average temperature yesterday: 89 °F

High & Low Weather Summary for the Past Weeks

 TemperatureHumidityPressure
High106 °F (Aug 16, 4:30 PM)84% (Aug 15, 4:00 AM)30.01 "Hg (Aug 15, 4:00 AM)
Low73 °F (Aug 20, 3:30 AM)16% (Aug 16, 4:00 PM)29.71 "Hg (Aug 16, 4:30 PM)
Average87 °F51%29.86 "Hg
* Reported Aug 9 6:00 AM — Aug 24 6:00 AM, Malakal, Weather by CustomWeather, © 2016

Note: Actual official high and low records may vary slightly from our data, if they occured in-between our weather recording intervals... More about our weather records

Advertising

Malakal Weather History for the Previous 24 Hours

Scroll right to see more
 ConditionsComfort  
Time TempWeatherWind HumidityBarometerVisibility
6:00 AM
Wed, Aug 24
86 °FClear.6 mph52%29.83 "Hg10 mi
5:30 AM86 °FClear.8 mph52%29.83 "Hg10 mi
5:00 AM86 °FClear.8 mph52%29.80 "Hg10 mi
4:30 AM88 °FClear.7 mph55%29.80 "Hg10 mi
4:00 AM88 °FClear.6 mph52%29.80 "Hg10 mi
3:30 AM88 °FClear.8 mph52%29.80 "Hg10 mi
2:30 AM88 °FClear.7 mph52%29.80 "Hg10 mi
2:00 AM88 °FClear.3 mph49%29.80 "Hg10 mi
1:30 AM88 °FClear.3 mph52%29.80 "Hg10 mi
1:00 AM90 °FClear.6 mph46%29.83 "Hg10 mi
12:33 AM90 °FClear.7 mph46%29.83 "Hg10 mi
12:00 AM90 °FClear.5 mph46%29.83 "Hg10 mi
11:30 PM
Tue, Aug 23
90 °FClear.6 mph46%29.86 "Hg10 mi
11:00 PM90 °FClear.6 mph46%29.86 "Hg10 mi
10:30 PM90 °FClear.3 mph43%29.83 "Hg10 mi
10:00 PM91 °FClear.6 mph34%29.83 "Hg10 mi
9:30 PM91 °FClear.6 mph36%29.83 "Hg10 mi
9:00 PM93 °FClear.10 mph32%29.80 "Hg10 mi
8:30 PM91 °FClear.6 mph38%29.80 "Hg10 mi
8:00 PM93 °FClear.5 mph34%29.80 "Hg10 mi
7:30 PM95 °FClear.7 mph32%29.80 "Hg10 mi
7:00 PM95 °FSunny.6 mph32%29.80 "Hg10 mi
6:30 PM97 °FSunny.7 mph30%29.77 "Hg10 mi
6:00 PM97 °FSunny.6 mph30%29.77 "Hg10 mi
5:30 PM97 °FSunny.9 mph32%29.77 "Hg10 mi
5:00 PM97 °FSunny.12 mph32%29.80 "Hg10 mi
4:30 PM97 °FSunny.10 mph32%29.80 "Hg10 mi
4:00 PM95 °FSunny.9 mph34%29.83 "Hg10 mi
3:30 PM95 °FSunny.8 mph34%N/A10 mi
3:00 PM95 °FSunny.10 mph34%29.83 "Hg10 mi
2:30 PM95 °FSunny.6 mph34%29.86 "Hg10 mi
2:00 PM95 °FSunny.N/A36%29.86 "Hg10 mi
1:30 PM93 °FSunny.9 mph39%29.86 "Hg10 mi
1:00 PM91 °FSunny.9 mph41%29.86 "Hg10 mi
12:30 PM90 °FSunny.14 mph43%29.86 "Hg10 mi
12:00 PM88 °FSunny.9 mph49%29.86 "Hg10 mi
11:30 AM86 °FSunny.12 mph55%29.86 "Hg10 mi
11:00 AM88 °FPassing clouds.6 mph46%29.89 "Hg5 mi
10:30 AM88 °FPassing clouds.6 mph46%29.89 "HgN/A
10:00 AM86 °FPassing clouds.8 mph49%29.89 "HgN/A
9:30 AM84 °FPassing clouds.7 mph51%29.92 "HgN/A
9:00 AM81 °FPassing clouds.12 mph62%29.92 "HgN/A
8:30 AM81 °FPassing clouds.12 mph62%29.92 "HgN/A
8:00 AM81 °FWarm.14 mph62%29.92 "HgN/A
7:30 AM81 °FPassing clouds.8 mph62%29.92 "Hg5 mi
7:00 AM81 °FPassing clouds.14 mph62%29.92 "Hg5 mi
Weather by CustomWeather, © 2016

See weather overviewHow to use our weather pages